Fort Wayne, IN

10:59 PM EDT on August 17, 2019 (GMT -0400)
Fort Wayne International

Weather History for KFWA - June, 2019

Change the Weather History Date:

Tuesday, June 4, 2019

  Actual Average Record
Temperature  
Mean Temperature 67 °F 67 °F  
Max Temperature 81 °F 78 °F 97 °F (2011)
Min Temperature 53 °F 56 °F 39 °F (1945)
Degree Days  
Heating Degree Days 0 2  
Month to date heating degree days 7 10  
Since 1 June heating degree days 7 10  
Since 1 July heating degree days 5854 6082  
Cooling Degree Days 2 4  
Month to date cooling degree days 10 15  
Year to date cooling degree days 78 72  
Since 1 June cooling degree days 10 15  
Growing Degree Days 17 (Base 50)    
Moisture  
Dew Point 53 °F    
Average Humidity 63    
Maximum Humidity 89    
Minimum Humidity 36    
Precipitation  
Precipitation T in 0.16 in 1.70 in (2016)
Month to date precipitation 0.24 0.63  
Year to date precipitation 18.11 15.43  
Sea Level Pressure  
Sea Level Pressure 30.00 in    
Wind  
Wind Speed 8 mph (SSW)    
Max Wind Speed 21 mph    
Max Gust Speed 28 mph    
Visibility 10 miles    
Events Rain    
T = Trace of Precipitation, MM = Missing Value Source: NWS Daily Summary

Daily Weather History Graph

Daily Weather History Graph

Search for Another Location

Airport or City:

Astronomy

Jun. 04, 2019 Rise Set
Actual Time 6:09 AM EDT 9:08 PM EDT
Civil Twilight 5:36 AM EDT 9:41 PM EDT
Nautical Twilight 4:54 AM EDT 10:23 PM EDT
Astronomical Twilight 4:06 AM EDT 11:12 PM EDT
Moon 7:18 AM EDT (6/4) 10:36 PM EDT (6/4)
Length of Visible Light 16h 04m
Length of Day
14h 58m
New Moon, 2% of the Moon is Illuminated
Jun 4
New Moon
Jun 10
First Quarter
Jun 17
Full
Jun 25
Last Quarter
Jul 2
New

Hourly Weather History & Observations

Time (EDT) Temp. Heat Index Dew Point Humidity Pressure Visibility Wind Dir Wind Speed Gust Speed Precip Events Conditions
12:54 AM 57.9 °F - 51.1 °F 78% 30.11 in 10.0 mi Calm Calm - N/A   Mostly Cloudy
1:54 AM 55.9 °F - 51.1 °F 84% 30.09 in 10.0 mi East 3.5 mph - N/A   Mostly Cloudy
2:54 AM 55.0 °F - 51.1 °F 86% 30.10 in 10.0 mi Calm Calm - N/A   Scattered Clouds
3:54 AM 54.0 °F - 50.0 °F 86% 30.10 in 10.0 mi Calm Calm - N/A   Partly Cloudy
4:54 AM 54.0 °F - 50.0 °F 86% 30.10 in 10.0 mi Calm Calm - N/A   Mostly Cloudy
5:54 AM 55.0 °F - 50.0 °F 83% 30.09 in 10.0 mi Calm Calm - N/A   Mostly Cloudy
6:54 AM 57.0 °F - 52.0 °F 83% 30.09 in 10.0 mi SSE 4.6 mph - N/A   Mostly Cloudy
7:54 AM 57.9 °F - 54.0 °F 87% 30.09 in 10.0 mi South 4.6 mph - 0.00 in   Overcast
8:54 AM 61.0 °F - 55.0 °F 81% 30.08 in 10.0 mi SSW 3.5 mph - 0.00 in   Overcast
9:54 AM 64.9 °F - 55.9 °F 73% 30.07 in 10.0 mi SW 6.9 mph - 0.00 in Rain Light Rain
10:54 AM 66.9 °F - 55.9 °F 68% 30.06 in 10.0 mi SSW 8.1 mph - 0.00 in   Overcast
11:54 AM 72.0 °F - 55.9 °F 57% 30.05 in 10.0 mi SW 10.4 mph - N/A   Overcast
12:54 PM 73.0 °F - 54.0 °F 51% 30.04 in 10.0 mi SSW 13.8 mph - N/A   Overcast
1:54 PM 75.0 °F - 55.0 °F 50% 30.02 in 10.0 mi SW 15.0 mph - N/A   Mostly Cloudy
2:54 PM 80.1 °F 80.1 °F 55.0 °F 42% 29.98 in 10.0 mi SSW 17.3 mph 24.2 mph N/A   Mostly Cloudy
3:54 PM 80.1 °F 80.0 °F 54.0 °F 40% 29.95 in 10.0 mi SW 15.0 mph - N/A   Mostly Cloudy
4:54 PM 80.1 °F - 52.0 °F 38% 29.92 in 10.0 mi SW 16.1 mph - N/A   Mostly Cloudy
5:54 PM 80.1 °F - 52.0 °F 38% 29.90 in 10.0 mi SW 15.0 mph 24.2 mph N/A   Mostly Cloudy
6:54 PM 77.0 °F - 53.1 °F 43% 29.89 in 10.0 mi SSW 13.8 mph - N/A   Overcast
7:54 PM 75.9 °F - 53.1 °F 45% 29.86 in 10.0 mi SSW 11.5 mph - N/A   Mostly Cloudy
8:54 PM 73.9 °F - 55.0 °F 52% 29.85 in 10.0 mi South 8.1 mph - N/A   Mostly Cloudy
9:54 PM 71.1 °F - 52.0 °F 51% 29.84 in 10.0 mi South 10.4 mph - N/A   Mostly Cloudy
10:54 PM 66.9 °F - 54.0 °F 63% 29.86 in 10.0 mi SSW 8.1 mph - N/A   Mostly Cloudy
11:54 PM 69.1 °F - 53.1 °F 57% 29.86 in 10.0 mi SSW 8.1 mph - N/A   Overcast